Погода в Ёлкино

Россия / Новгородская область     58˚39′17″N   36˚01′37″E
темп.,
°C
ветер,
м/с
пор.,
м/с
влажн.,
%
обл.,
%
осадки,
мм/ч
давл.,
гПа
погр.,
м
15 января, пт
пт1500:00−22˚ссв3797100 0.2 1012383
03:00−23˚ссв3696100 0.3 1012337
06:00−23˚ссв2598100 0.3 1012305
09:00−23˚ссв2597100 0.4 1013289
12:00−22˚с2395100 0.1 1014299
15:00−22˚ссв1397100 0.1 1015187
18:00−24˚ссв2298100 0.0 101528
21:00−24˚ссв2398100 0.1 1016108
16 января, сб
сб1600:00−24˚ссв2398100 0.0 101687
03:00−23˚с2497100 0.0 1016149
06:00−22˚с2696100 0.0 1015237
09:00−21˚с2796100 0.0 1015264
12:00−21˚с3794100 0.0 1014277
15:00−20˚с3793100 0.0 1013335
18:00−21˚с3895100 0.0 1013321
21:00−22˚с3895100 0.0 1014247
17 января, вс
вс1700:00−24˚ссз259259 0.0 1015111
03:00−25˚ссз239629 0.0 101576
06:00−24˚ссз23990 0.0 101544
09:00−23˚сз22996 0.0 101620
12:00−19˚з119655 0.0 101777
15:00−17˚зюз129659 0.0 101732
18:00−18˚зюз229739 0.0 101720
21:00−18˚юз239746 0.0 101838
18 января, пн
пн1800:00−17˚юз229786 0.0 101769
03:00−15˚юз249792 0.1 101798
06:00−14˚зюз229798 0.1 101665
09:00−13˚юз249694 0.2 1017105
12:00−11˚зюз249592 0.1 1018147
15:00−9˚зюз249694 0.2 1017172
18:00−12˚з229798 0.1 101821
21:00−11˚з129798 0.1 101922
19 января, вт
вт1900:00−11˚сз129778 0.1 101922
03:00−13˚з119881 0.1 101920
06:00−13˚зсз119787 0.1 101920
09:00−13˚з119782 0.1 102020
12:00−11˚зюз119685 0.0 102062
15:00−10˚ююз129786 0.1 102039
18:00−13˚ююз229774 0.0 102020
21:00−14˚ююз239776 0.1 102134